星链-36959(STARLINK-36959)

导读

STARLINK-36959(NORAD编号68060)是美国SpaceX公司星链(Starlink)互联网卫星星座中的一颗第一代低轨卫星。该卫星原运行在约550公里的近地轨道,属于SpaceX在2018-2020年调整后轨道统一降为550公里的一代星链星座,使用Ka和Ku频段提供卫星互联网服务。 2026年SpaceX启动降轨计划,将包含该卫星在内的4400颗星链卫星轨道高度降至480公里,降轨后故障卫星可更快再入大气层销毁,降低太空碰撞与碎片风险,缓解近地轨道拥挤问题,避免凯斯勒现象风险。作为星链星座的组成部分,它为全球用户提供高速低时延的宽带互联网接入服务。

基本信息
目录编号:
68060
目录名称:
STARLINK-36959
国际标识:
2026-041W
轨道中心:
EARTH
卫星名称:
星链-36959
卫星全名:
星链-36959(STARLINK-36959)
卫星状态:
在轨 (已飞行195 天)
发射日期:
2026-03-02 UTC
国别 :
美国 (US)
星等 :
--
该卫星已列入 空间交会检测服务 Space Conjunction Data Service (SCDS) ,当前飞行风险评估等级: 无高风险
轨道信息
数据来源 国际轨道数据 AOE轨道数据
星历时间 2026-09-13T01:01:23+0800
16小时前
查看轨道信息
2026-09-10T08:00:00+0800
3天前
查看轨道信息
半长轴 6840.838km 6840.909km
偏心率 0.0001582 0.0000938
轨道倾角 53.157° 53.157°
近地点辐角 87.224° 86.979°
升交点赤经 256.092° 268.759°
平近点角 272.894° 59.142°
近地点 461.618km 462.13km
远地点 463.784km 463.414km
周期 93.848分钟 93.849分钟
每日圈数 15.344008 15.343771
详细信息
固有亮度:
5
最大亮度:
2.5
卫星平台:
Starlink V1.0
覆盖范围:
全球
运营商:
太空探索技术公司
运营商所在国:
美国
制造商(研发单位):
太空探索技术公司
制造商所在国:
美国
使用方式:
暂无
卫星简介
Starlink 计划是 SpaceX 推出的全球卫星互联网项目,通过发射低轨道卫星,为全球尤其是偏远地区提供高速、低延迟的互联网服务。自 2019 年起,Starlink 已部署数千颗卫星,旨在缩小全球数字鸿沟,推动互联网普及。该项目还为军事、航空等行业提供通信支持,带来广泛经济效益。
2D轨道图
3D轨道图
轨道高度分析图
轨道倾角分析图
轨道综合分析图
查看轨道综合分析图
与全量物体交会距离演化趋势
与全量物体交会风险概率演化趋势